Wind_Speed
42 40 39 38 37 37 37 38 39 39 40 41 42 43 43 43 43 43 42 42 41 41 40 40 40 39 39 39 39 39 38 38 38 38 38 37 37 37 37 37 37 37 37
42 41 40 39 38 38 38 39 39 40 41 42 44 44 45 45 45 45 44 44 43 43 43 43 43 43 43 43 43 42 42 42 42 42 41 40 40 39 39 39 39 39 39
42 42 41 40 39 39 39 39 40 41 42 43 44 45 46 45 45 45 45 45 46 46 46 46 46 46 46 46 46 46 45 45 45 45 45 43 42 42 42 41 42 42 42
42 41 41 40 40 40 40 40 40 41 42 43 44 45 45 46 46 47 47 48 49 49 49 48 49 49 49 49 49 49 49 49 48 48 48 47 46 45 44 44 45 45 45
41 41 40 40 40 40 40 39 40 41 42 43 44 45 45 46 46 48 49 50 50 51 51 51 52 52 52 52 53 52 52 52 52 51 50 50 49 48 47 47 47 48 48
39 39 39 39 39 39 39 39 39 40 41 42 43 44 45 46 47 48 49 51 52 53 54 54 55 55 56 55 56 56 55 55 54 53 52 52 52 51 51 50 50 51 51
37 37 37 37 37 38 38 38 39 39 40 41 42 43 45 46 48 50 51 53 54 55 57 58 58 59 59 59 58 58 57 57 56 55 54 55 54 54 54 53 53 53 53
35 35 35 35 35 36 36 36 37 38 39 41 42 44 46 48 50 52 53 55 57 58 60 61 61 61 62 62 61 60 59 58 58 57 56 56 56 56 56 55 55 55 56
32 33 33 33 33 34 34 35 36 38 39 41 43 45 47 49 51 54 56 58 60 61 62 63 64 64 64 63 63 62 61 60 59 59 58 57 58 57 57 56 56 57 58
31 31 31 31 32 32 33 34 36 37 39 42 43 45 48 50 53 55 58 60 62 63 65 66 66 65 65 64 63 62 61 60 60 59 59 59 58 58 58 58 58 58 59
29 29 29 29 30 31 32 34 35 37 39 41 43 45 47 50 53 56 58 60 63 64 65 66 66 65 64 62 61 60 59 58 58 58 57 57 56 57 58 59 58 58 58
27 27 28 29 29 30 32 33 35 36 37 38 40 42 44 47 50 53 55 57 59 61 62 62 62 62 60 58 57 55 55 55 54 54 54 55 55 55 56 56 57 58 58
26 26 27 28 29 30 31 31 32 33 34 35 36 38 40 42 44 46 48 50 51 53 54 55 55 55 54 52 52 51 50 50 50 50 51 51 52 53 53 54 55 56 57
25 25 26 27 27 28 28 28 29 29 30 32 33 35 36 38 39 40 40 42 43 44 44 44 44 45 45 44 44 44 44 44 44 45 46 48 49 49 50 51 52 53 55
23 24 24 24 25 25 25 25 26 26 27 28 30 32 33 33 33 33 33 34 34 34 32 33 33 35 36 36 36 36 36 37 39 41 42 43 44 45 46 47 49 51 53
21 21 22 22 22 21 22 23 23 23 24 25 26 27 28 28 28 28 27 26 25 24 23 23 23 25 26 28 29 30 31 32 34 36 37 38 39 41 43 46 47 48 51
19 19 19 19 19 19 20 20 21 21 21 22 23 23 24 24 24 23 22 21 19 17 17 16 16 18 19 21 22 24 25 27 29 31 33 35 37 40 42 44 47 49 51
17 17 17 16 17 17 17 18 18 18 19 19 20 20 20 20 19 19 17 15 13 12 11 11 13 13 13 15 17 20 22 24 26 28 31 33 36 38 41 44 47 49 51
16 15 15 16 16 16 16 16 16 16 16 16 17 17 16 16 16 15 13 12 11 9 8 8 9 10 12 14 15 17 20 23 26 29 31 34 36 39 42 44 47 49 51
15 15 15 15 15 15 15 15 14 14 14 14 14 14 13 13 13 12 11 11 10 9 8 8 8 9 11 12 15 18 21 24 26 29 31 34 37 39 42 44 47 50 52
14 14 14 15 15 14 15 14 14 13 13 13 12 12 12 12 12 12 11 10 10 9 9 9 10 11 13 15 17 19 22 24 27 30 33 35 38 41 43 46 48 51 53
14 14 14 14 14 14 14 15 14 13 13 13 12 12 11 11 11 11 11 11 11 11 11 12 13 15 16 18 20 22 24 27 29 32 34 37 40 42 45 47 50 52 54
14 14 14 13 13 14 14 14 14 13 13 12 12 11 11 11 12 12 12 12 13 13 14 15 16 18 19 20 22 24 26 29 31 34 37 39 42 45 47 49 51 53 54
14 14 14 14 14 13 13 13 13 12 12 11 11 11 11 12 13 13 14 14 15 16 16 17 18 20 21 23 25 27 29 32 34 37 39 42 44 47 49 51 52 53 52
15 15 15 15 14 14 13 13 12 12 12 12 12 12 13 13 14 15 15 16 17 18 19 20 21 22 24 25 27 29 32 35 37 40 42 45 47 49 51 52 52 52 52
16 15 15 15 14 14 13 13 13 13 13 13 13 14 14 15 16 17 17 18 19 20 21 22 24 25 27 28 30 32 35 37 40 42 44 47 49 50 51 51 51 51 49
Wind_Direction
240 240 241 242 244 246 248 251 253 256 258 259 261 262 263 263 264 264 265 265 265 265 266 267 268 269 269 270 272 274 276 278 279 281 283 284 285 286 287 288 289 289 289
242 244 244 245 246 248 250 252 255 257 258 259 260 261 262 263 264 264 264 265 265 266 266 267 267 267 268 269 271 273 274 276 278 279 281 283 284 284 285 286 286 286 286
243 246 247 249 250 251 253 255 256 257 258 259 260 261 262 263 264 264 264 264 264 264 265 265 266 267 268 269 270 272 273 275 276 278 279 281 282 281 283 284 284 284 284
244 247 249 252 254 256 257 258 259 259 260 261 261 262 262 263 263 263 263 263 264 265 265 266 266 267 268 269 270 271 272 274 275 276 278 279 279 280 281 282 283 283 284
245 248 250 253 255 257 259 259 260 260 261 262 263 263 263 263 263 264 264 264 264 264 265 265 266 266 268 268 269 270 271 272 273 274 276 277 278 280 280 281 282 283 283
245 248 251 253 255 257 259 260 261 261 262 263 264 264 265 265 265 265 265 265 265 265 265 265 265 266 266 267 268 268 269 270 271 272 273 275 277 278 279 280 281 282 282
245 248 251 253 255 257 258 260 261 262 264 265 266 266 267 267 268 268 267 267 267 266 266 265 265 265 265 265 265 266 267 267 268 270 271 272 274 275 277 278 279 280 280
244 248 250 252 254 257 259 261 263 265 266 268 269 269 270 270 270 270 269 269 268 267 266 266 265 265 265 265 265 265 265 266 266 268 269 271 273 273 274 276 278 279 280
242 246 248 251 254 257 260 263 266 268 270 271 272 273 273 274 274 273 273 272 271 269 268 267 266 265 264 264 264 264 264 264 265 266 268 270 271 273 274 275 277 279 280
241 244 248 251 255 259 262 265 268 271 273 274 276 277 277 278 278 277 277 275 273 271 269 268 267 266 265 264 263 263 263 263 264 265 266 268 269 271 273 275 277 279 280
240 244 249 253 257 261 264 268 271 273 275 277 279 280 281 282 282 281 279 277 275 273 271 269 267 266 265 264 263 262 262 261 262 263 264 266 268 271 273 276 278 279 280
241 246 251 255 260 263 267 270 273 276 278 280 282 284 285 286 286 285 283 280 278 275 273 270 268 266 264 263 262 261 261 260 260 261 263 265 268 270 272 275 276 277 279
244 249 253 258 262 265 269 272 275 278 280 283 286 289 291 292 292 291 288 285 281 277 273 270 267 265 263 262 261 260 260 260 259 260 262 264 266 269 272 273 276 277 279
248 252 256 259 263 267 270 273 277 279 283 287 290 293 295 296 297 296 293 290 286 282 276 271 267 264 262 260 259 258 258 258 259 260 261 263 266 269 272 274 276 278 280
249 253 256 260 264 268 271 274 278 282 287 291 294 297 299 300 301 302 300 297 292 285 278 272 266 262 260 258 256 254 255 256 258 260 261 264 267 270 274 275 278 280 281
249 254 258 262 265 267 271 275 279 284 290 295 299 301 304 305 305 307 308 303 297 288 279 274 268 261 257 254 251 249 252 254 258 261 263 266 269 272 275 279 281 283 285
251 256 259 262 263 268 273 276 281 286 293 298 302 306 310 312 311 311 312 307 301 293 283 279 272 264 259 255 250 249 250 255 260 264 267 270 273 276 279 282 285 287 289
254 255 258 261 263 268 275 280 284 288 293 300 305 310 314 318 319 319 317 314 311 304 292 279 274 267 261 254 254 255 256 261 265 269 272 276 278 280 284 287 289 292 293
253 254 258 262 266 271 276 281 285 289 295 302 306 310 315 322 327 328 326 324 322 314 304 291 279 272 266 262 261 263 265 269 274 278 280 282 284 287 290 292 294 295 296
254 255 259 263 269 273 277 281 284 289 295 302 308 310 314 323 329 330 330 330 328 325 320 311 302 291 284 280 279 278 278 279 281 284 287 289 292 294 295 296 297 298 299
254 256 260 265 271 274 277 280 283 285 293 300 305 312 313 317 320 322 325 329 330 328 323 317 309 301 295 293 292 290 290 291 292 293 295 296 297 298 299 299 300 301 302
254 257 262 268 272 274 277 279 282 284 288 294 298 306 314 317 320 321 323 325 325 324 319 314 309 305 302 299 299 298 298 299 299 300 300 301 301 301 302 302 303 304 304
254 257 263 269 271 275 277 279 280 282 285 288 294 300 305 312 316 319 321 323 323 321 318 314 311 309 306 305 304 303 303 302 303 303 304 304 304 304 305 305 305 305 305
256 260 263 267 271 275 276 277 279 282 283 286 291 297 302 308 312 315 317 318 318 317 316 315 313 311 310 308 307 307 306 305 305 306 306 307 307 307 306 306 307 306 306
258 261 264 266 269 272 274 274 277 280 282 285 290 297 303 307 310 312 313 314 314 315 314 314 314 312 312 311 310 309 309 309 309 309 309 309 309 309 309 308 308 307 307
258 261 263 264 266 267 269 272 276 278 281 285 290 296 301 305 308 309 310 312 313 314 314 314 314 313 313 313 312 311 311 311 311 311 311 312 312 312 311 311 310 309 308
Height
5773 5777 5781 5785 5788 5790 5793 5794 5795 5796 5797 5798 5798 5799 5800 5800 5800 5800 5800 5800 5801 5801 5801 5801 5800 5800 5800 5799 5799 5798 5797 5796 5795 5794 5793 5792 5791 5790 5788 5786 5785 5783 5781
5765 5770 5774 5777 5780 5783 5785 5787 5788 5789 5789 5790 5790 5791 5791 5791 5792 5792 5792 5792 5792 5792 5792 5792 5791 5791 5790 5790 5790 5789 5788 5788 5787 5785 5784 5784 5783 5782 5779 5778 5776 5774 5772
5758 5762 5765 5769 5772 5775 5777 5778 5779 5780 5781 5781 5781 5782 5782 5783 5783 5783 5783 5783 5782 5782 5782 5781 5781 5780 5780 5780 5780 5779 5778 5778 5777 5775 5775 5775 5774 5772 5771 5769 5767 5765 5763
5751 5754 5758 5761 5763 5766 5768 5769 5770 5771 5772 5772 5773 5773 5773 5774 5774 5774 5773 5772 5772 5771 5771 5771 5770 5770 5769 5769 5769 5768 5768 5767 5766 5765 5764 5764 5763 5762 5761 5759 5757 5755 5753
5743 5747 5750 5752 5755 5757 5759 5760 5761 5762 5762 5763 5763 5763 5764 5764 5764 5763 5763 5762 5761 5761 5760 5760 5759 5759 5758 5758 5757 5757 5756 5755 5755 5754 5753 5752 5751 5750 5749 5748 5747 5744 5742
5736 5739 5742 5744 5746 5748 5750 5751 5751 5752 5753 5753 5753 5753 5753 5753 5753 5752 5752 5751 5750 5749 5748 5747 5747 5746 5746 5745 5744 5744 5743 5743 5742 5742 5742 5741 5740 5739 5737 5736 5735 5733 5730
5728 5731 5734 5736 5738 5739 5740 5741 5742 5742 5743 5743 5743 5743 5743 5742 5741 5740 5739 5738 5737 5737 5735 5734 5733 5732 5732 5731 5731 5730 5730 5730 5730 5730 5730 5729 5728 5728 5726 5724 5723 5721 5719
5721 5723 5725 5727 5729 5730 5731 5732 5733 5733 5733 5733 5733 5732 5731 5730 5729 5727 5725 5724 5723 5722 5720 5719 5718 5717 5717 5716 5716 5716 5717 5717 5717 5717 5717 5716 5716 5715 5714 5712 5710 5708 5706
5713 5716 5718 5719 5721 5722 5723 5723 5723 5723 5723 5723 5721 5720 5719 5717 5715 5713 5710 5708 5706 5705 5703 5701 5701 5701 5700 5700 5701 5701 5702 5703 5703 5704 5704 5703 5703 5702 5701 5700 5698 5696 5693
5706 5708 5710 5712 5713 5714 5714 5714 5714 5714 5713 5712 5710 5708 5706 5704 5701 5698 5694 5691 5688 5686 5684 5682 5682 5682 5682 5683 5684 5685 5687 5688 5689 5690 5691 5690 5690 5689 5688 5687 5685 5683 5680
5699 5701 5702 5704 5705 5705 5706 5706 5705 5704 5703 5701 5699 5697 5694 5690 5686 5682 5678 5673 5669 5666 5664 5662 5662 5662 5664 5665 5667 5669 5671 5673 5675 5676 5677 5677 5677 5676 5675 5673 5671 5670 5667
5692 5694 5695 5696 5697 5697 5697 5697 5696 5695 5693 5691 5689 5686 5682 5677 5672 5667 5661 5655 5650 5647 5644 5643 5643 5643 5645 5648 5650 5653 5656 5658 5660 5662 5664 5664 5664 5663 5662 5661 5658 5656 5653
5686 5687 5688 5689 5689 5689 5689 5688 5687 5686 5684 5681 5678 5675 5670 5665 5659 5652 5645 5639 5633 5629 5626 5625 5625 5627 5629 5632 5635 5638 5642 5645 5647 5649 5651 5651 5651 5651 5649 5648 5645 5643 5640
5679 5681 5681 5682 5682 5682 5681 5680 5679 5677 5675 5672 5669 5664 5659 5653 5647 5640 5633 5626 5620 5615 5612 5610 5611 5613 5616 5619 5622 5626 5629 5632 5635 5637 5638 5639 5639 5638 5637 5635 5633 5629 5626
5673 5674 5675 5675 5675 5675 5674 5673 5671 5669 5667 5663 5659 5655 5649 5643 5637 5630 5623 5616 5610 5605 5602 5601 5601 5603 5605 5608 5611 5615 5619 5622 5624 5626 5627 5628 5628 5627 5625 5623 5620 5617 5613
5667 5668 5668 5669 5668 5668 5667 5666 5664 5662 5659 5656 5652 5647 5641 5635 5629 5623 5616 5610 5604 5600 5597 5595 5595 5596 5598 5600 5604 5607 5610 5613 5615 5616 5617 5617 5617 5616 5614 5611 5608 5604 5600
5661 5662 5662 5662 5662 5662 5661 5659 5657 5655 5652 5649 5645 5640 5635 5629 5623 5617 5612 5606 5601 5597 5594 5593 5592 5593 5594 5596 5598 5601 5603 5606 5607 5608 5608 5608 5607 5605 5603 5599 5596 5592 5587
5656 5656 5657 5657 5656 5656 5654 5653 5651 5649 5646 5643 5639 5635 5630 5624 5619 5613 5608 5604 5600 5596 5593 5592 5592 5592 5592 5593 5595 5597 5598 5600 5601 5601 5600 5599 5597 5595 5592 5588 5583 5578 5573
5650 5651 5651 5651 5651 5650 5649 5647 5645 5643 5640 5637 5634 5630 5626 5621 5616 5611 5607 5603 5599 5596 5594 5592 5592 5591 5592 5592 5593 5594 5594 5594 5594 5594 5592 5590 5588 5585 5581 5576 5571 5565 5560
5645 5646 5646 5646 5645 5644 5643 5642 5640 5638 5635 5633 5629 5626 5622 5618 5614 5610 5606 5603 5599 5596 5594 5593 5592 5591 5591 5590 5590 5590 5590 5589 5588 5586 5584 5581 5577 5574 5569 5564 5558 5552 5546
5641 5641 5641 5641 5640 5639 5638 5637 5635 5633 5631 5628 5626 5622 5619 5616 5612 5609 5605 5602 5599 5597 5594 5592 5591 5590 5589 5588 5587 5586 5585 5583 5581 5578 5575 5572 5567 5563 5558 5552 5546 5539 5532
5636 5636 5636 5636 5635 5634 5633 5632 5630 5628 5626 5624 5622 5619 5616 5613 5610 5607 5604 5601 5598 5596 5594 5592 5590 5588 5587 5585 5583 5581 5579 5576 5573 5570 5566 5562 5557 5552 5546 5540 5533 5525 5518
5631 5631 5631 5631 5630 5629 5628 5627 5626 5624 5622 5620 5618 5616 5613 5611 5608 5605 5602 5600 5597 5594 5592 5590 5587 5585 5583 5580 5578 5575 5572 5569 5566 5562 5557 5552 5546 5540 5534 5527 5519 5512 5503
5627 5627 5627 5626 5626 5625 5624 5622 5621 5620 5618 5616 5614 5612 5610 5608 5605 5602 5600 5597 5594 5592 5589 5587 5584 5581 5578 5575 5572 5569 5566 5562 5557 5553 5547 5541 5535 5528 5521 5514 5506 5497 5489
5622 5622 5622 5621 5621 5620 5619 5618 5617 5616 5614 5613 5611 5609 5607 5604 5602 5599 5597 5594 5591 5588 5586 5583 5579 5576 5573 5570 5566 5562 5558 5553 5548 5543 5537 5530 5523 5516 5508 5500 5491 5483 5475
5617 5617 5617 5617 5616 5616 5615 5614 5613 5611 5610 5609 5607 5605 5603 5600 5598 5595 5593 5590 5587 5584 5581 5577 5574 5571 5567 5563 5559 5555 5550 5545 5539 5533 5526 5518 5510 5502 5494 5485 5477 5469 5461